Location: El Álamo
(40.2307°N, 3.9945°W)
Time: 03:36:39
(UTC+00:00)

CENTAUR R/B - Pass Details

Date: 19 May 2025
Orbit: 644 x 1537 km, 63.4° (Epoch: 23 June)

Event Time Altitude Azimuth Distance (km) Brightness Sun altitude
Rises 23:13:39 0° 328° (NNW) 4,128 6.9 -28.2°
Reaches altitude 10° 23:16:36 10° 338° (NNW) 3,286 6.2 -28.4°
Maximum altitude 23:24:01 35° 42° (NE) 2,146 4.5 -28.7°
Enters shadow 23:31:32 12° 102° (ESE) 3,482 5.1 -29.0°
